QPF
0.00 0.00 0.00 0.00 0.00 0.00 0.00 0.00 0.00 0.00 0.00 0.00 0.00 0.00 0.01 0.00 0.00 0.00 0.00 0.00 0.00 0.00 0.00 0.00 0.01 0.01 0.01 0.01 0.01 0.01 0.02 0.02 0.02 0.03 0.05 0.06 0.05 0.05 0.04 0.05 0.03 0.02 0.02 0.02
0.00 0.00 0.00 0.00 0.00 0.00 0.00 0.00 0.00 0.00 0.00 0.00 0.00 0.00 0.01 0.01 0.00 0.00 0.00 0.00 0.00 0.00 0.01 0.01 0.01 0.01 0.02 0.02 0.03 0.04 0.03 0.02 0.02 0.03 0.04 0.04 0.04 0.04 0.04 0.03 0.03 0.02 0.01 0.01
0.00 0.00 0.00 0.00 0.00 0.00 0.00 0.00 0.00 0.00 0.00 0.00 0.00 0.00 0.01 0.01 0.01 0.01 0.01 0.01 0.01 0.01 0.01 0.01 0.01 0.02 0.03 0.05 0.04 0.02 0.02 0.02 0.03 0.03 0.03 0.03 0.03 0.04 0.03 0.02 0.01 0.01 0.01 0.01
0.00 0.00 0.00 0.00 0.00 0.00 0.00 0.00 0.00 0.00 0.00 0.00 0.00 0.01 0.01 0.01 0.00 0.01 0.01 0.02 0.02 0.02 0.02 0.01 0.01 0.01 0.02 0.02 0.01 0.02 0.02 0.02 0.03 0.05 0.06 0.05 0.04 0.02 0.01 0.01 0.01 0.01 0.01 0.01
0.00 0.00 0.00 0.00 0.00 0.00 0.00 0.00 0.00 0.00 0.00 0.00 0.00 0.00 0.00 0.00 0.00 0.00 0.01 0.02 0.02 0.02 0.02 0.01 0.01 0.00 0.01 0.01 0.01 0.01 0.01 0.02 0.02 0.03 0.04 0.03 0.02 0.02 0.02 0.01 0.02 0.02 0.01 0.01
0.00 0.00 0.00 0.00 0.00 0.00 0.00 0.00 0.00 0.00 0.00 0.00 0.00 0.00 0.00 0.00 0.00 0.00 0.00 0.00 0.01 0.01 0.01 0.01 0.01 0.01 0.01 0.01 0.01 0.01 0.01 0.02 0.02 0.04 0.05 0.04 0.03 0.03 0.03 0.02 0.02 0.01 0.01 0.01
0.00 0.00 0.00 0.00 0.00 0.00 0.01 0.01 0.00 0.00 0.00 0.00 0.00 0.00 0.00 0.00 0.00 0.00 0.00 0.00 0.00 0.00 0.01 0.01 0.01 0.01 0.01 0.01 0.01 0.02 0.05 0.08 0.08 0.09 0.08 0.07 0.05 0.04 0.03 0.03 0.02 0.01 0.01 0.01
0.00 0.00 0.00 0.00 0.00 0.00 0.01 0.00 0.00 0.00 0.00 0.00 0.00 0.00 0.00 0.00 0.00 0.00 0.00 0.00 0.00 0.00 0.01 0.01 0.01 0.01 0.01 0.02 0.03 0.04 0.05 0.09 0.09 0.10 0.10 0.07 0.05 0.03 0.03 0.03 0.02 0.01 0.01 0.02
0.01 0.01 0.00 0.00 0.00 0.00 0.00 0.00 0.00 0.00 0.00 0.00 0.00 0.01 0.00 0.00 0.00 0.00 0.00 0.00 0.00 0.01 0.01 0.01 0.01 0.01 0.03 0.03 0.03 0.05 0.06 0.08 0.09 0.11 0.14 0.10 0.06 0.04 0.03 0.02 0.02 0.02 0.02 0.02
0.02 0.01 0.01 0.00 0.00 0.00 0.00 0.01 0.01 0.01 0.01 0.00 0.00 0.01 0.01 0.01 0.00 0.00 0.00 0.01 0.01 0.01 0.01 0.01 0.02 0.02 0.03 0.03 0.03 0.04 0.06 0.07 0.09 0.09 0.09 0.09 0.07 0.06 0.05 0.03 0.03 0.02 0.02 0.03
0.01 0.01 0.01 0.01 0.01 0.00 0.00 0.01 0.02 0.01 0.01 0.00 0.00 0.00 0.00 0.00 0.00 0.00 0.00 0.00 0.01 0.01 0.01 0.02 0.02 0.03 0.04 0.05 0.04 0.04 0.05 0.05 0.06 0.08 0.10 0.10 0.07 0.07 0.06 0.04 0.04 0.04 0.03 0.03
0.01 0.01 0.01 0.01 0.01 0.01 0.00 0.00 0.01 0.01 0.01 0.00 0.00 0.00 0.00 0.00 0.00 0.00 0.00 0.00 0.00 0.01 0.02 0.02 0.02 0.03 0.04 0.08 0.08 0.03 0.02 0.02 0.02 0.03 0.04 0.05 0.05 0.05 0.04 0.03 0.03 0.02 0.02 0.02
0.00 0.00 0.00 0.01 0.01 0.00 0.00 0.00 0.00 0.00 0.00 0.00 0.00 0.00 0.00 0.00 0.01 0.00 0.00 0.00 0.00 0.01 0.01 0.03 0.03 0.02 0.02 0.03 0.03 0.02 0.02 0.02 0.02 0.03 0.04 0.05 0.05 0.05 0.04 0.03 0.03 0.02 0.02 0.02
0.00 0.00 0.00 0.00 0.01 0.01 0.00 0.00 0.00 0.00 0.00 0.00 0.00 0.00 0.00 0.00 0.00 0.00 0.00 0.00 0.00 0.00 0.01 0.01 0.01 0.02 0.02 0.01 0.01 0.01 0.01 0.02 0.03 0.03 0.04 0.03 0.03 0.03 0.03 0.02 0.02 0.02 0.02 0.02
0.01 0.01 0.01 0.00 0.00 0.00 0.01 0.01 0.01 0.01 0.01 0.00 0.00 0.01 0.00 0.00 0.00 0.00 0.00 0.00 0.01 0.01 0.02 0.02 0.02 0.02 0.02 0.01 0.01 0.01 0.01 0.02 0.03 0.03 0.03 0.02 0.02 0.02 0.03 0.02 0.02 0.02 0.02 0.02
0.01 0.01 0.01 0.01 0.01 0.01 0.01 0.01 0.01 0.01 0.01 0.01 0.01 0.01 0.01 0.00 0.00 0.01 0.01 0.01 0.01 0.03 0.03 0.02 0.03 0.02 0.01 0.01 0.01 0.01 0.02 0.02 0.02 0.02 0.02 0.02 0.03 0.03 0.04 0.03 0.03 0.03 0.03 0.03
0.01 0.01 0.01 0.01 0.01 0.01 0.01 0.01 0.01 0.01 0.00 0.00 0.00 0.01 0.01 0.00 0.01 0.01 0.01 0.01 0.02 0.04 0.05 0.04 0.03 0.02 0.01 0.01 0.01 0.02 0.02 0.02 0.02 0.02 0.03 0.03 0.04 0.04 0.04 0.04 0.03 0.04 0.03 0.04
0.01 0.01 0.01 0.01 0.01 0.02 0.02 0.01 0.01 0.01 0.01 0.01 0.00 0.01 0.01 0.01 0.01 0.01 0.01 0.02 0.02 0.03 0.02 0.02 0.02 0.02 0.01 0.01 0.01 0.02 0.02 0.02 0.03 0.02 0.02 0.03 0.03 0.03 0.04 0.04 0.03 0.03 0.02 0.03
0.02 0.01 0.01 0.01 0.01 0.01 0.01 0.01 0.01 0.01 0.01 0.01 0.02 0.02 0.02 0.02 0.02 0.02 0.02 0.01 0.01 0.02 0.02 0.02 0.02 0.01 0.01 0.03 0.05 0.05 0.05 0.04 0.04 0.03 0.03 0.03 0.03 0.03 0.03 0.03 0.04 0.03 0.04 0.04
0.04 0.02 0.01 0.01 0.01 0.01 0.01 0.00 0.01 0.01 0.01 0.01 0.02 0.03 0.04 0.04 0.04 0.03 0.03 0.03 0.02 0.02 0.03 0.02 0.02 0.02 0.02 0.03 0.05 0.08 0.11 0.12 0.10 0.06 0.04 0.04 0.04 0.04 0.04 0.04 0.04 0.05 0.05 0.04
0.02 0.02 0.01 0.01 0.01 0.01 0.01 0.01 0.01 0.02 0.03 0.03 0.04 0.05 0.05 0.06 0.06 0.05 0.04 0.03 0.02 0.02 0.02 0.02 0.02 0.02 0.02 0.02 0.02 0.03 0.04 0.08 0.11 0.12 0.10 0.08 0.06 0.05 0.04 0.04 0.04 0.04 0.03 0.04
0.03 0.02 0.01 0.01 0.01 0.01 0.01 0.02 0.04 0.09 0.08 0.07 0.07 0.07 0.06 0.07 0.07 0.06 0.06 0.04 0.02 0.01 0.01 0.01 0.01 0.01 0.01 0.02 0.01 0.01 0.01 0.02 0.03 0.04 0.06 0.07 0.08 0.08 0.07 0.06 0.06 0.05 0.05 0.04
0.04 0.03 0.02 0.01 0.02 0.02 0.04 0.05 0.07 0.11 0.11 0.10 0.11 0.10 0.07 0.05 0.04 0.04 0.04 0.03 0.02 0.02 0.01 0.01 0.01 0.01 0.01 0.01 0.01 0.01 0.01 0.01 0.01 0.01 0.02 0.02 0.02 0.02 0.03 0.05 0.06 0.06 0.06 0.05
0.03 0.03 0.03 0.04 0.05 0.05 0.05 0.06 0.07 0.10 0.11 0.09 0.09 0.08 0.06 0.05 0.03 0.02 0.02 0.02 0.02 0.02 0.01 0.01 0.02 0.02 0.02 0.02 0.02 0.02 0.01 0.01 0.01 0.01 0.01 0.01 0.01 0.01 0.01 0.01 0.02 0.02 0.03 0.03
0.03 0.03 0.03 0.03 0.03 0.04 0.04 0.05 0.06 0.07 0.08 0.08 0.09 0.07 0.04 0.04 0.03 0.02 0.02 0.02 0.02 0.03 0.02 0.01 0.02 0.02 0.02 0.02 0.02 0.02 0.02 0.02 0.01 0.01 0.02 0.02 0.01 0.01 0.01 0.02 0.02 0.02 0.02 0.02
0.03 0.03 0.03 0.03 0.03 0.03 0.02 0.02 0.03 0.04 0.05 0.05 0.07 0.05 0.04 0.04 0.03 0.03 0.02 0.02 0.02 0.02 0.02 0.01 0.01 0.01 0.02 0.03 0.03 0.03 0.03 0.02 0.02 0.02 0.02 0.02 0.02 0.02 0.02 0.03 0.03 0.02 0.02 0.02
0.03 0.04 0.04 0.04 0.04 0.04 0.03 0.03 0.04 0.04 0.04 0.05 0.05 0.05 0.05 0.04 0.04 0.03 0.02 0.03 0.03 0.02 0.02 0.02 0.01 0.02 0.02 0.03 0.03 0.03 0.02 0.02 0.02 0.03 0.03 0.02 0.02 0.02 0.02 0.02 0.03 0.03 0.02 0.02
MSLP
1005.81 1005.88 1006.07 1006.40 1006.90 1007.56 1008.35 1009.20 1010.06 1010.85 1011.51 1012.00 1012.31 1012.44 1012.42 1012.28 1012.08 1011.86 1011.63 1011.44 1011.29 1011.17 1011.08 1011.01 1010.95 1010.90 1010.84 1010.78 1010.72 1010.66 1010.61 1010.58 1010.56 1010.57 1010.63 1010.73 1010.90 1011.13 1011.42 1011.76 1012.15 1012.56 1012.98 1013.39
1006.33 1006.53 1006.80 1007.19 1007.70 1008.34 1009.08 1009.87 1010.67 1011.41 1012.05 1012.56 1012.90 1013.09 1013.13 1013.06 1012.90 1012.69 1012.47 1012.24 1012.02 1011.82 1011.63 1011.45 1011.28 1011.11 1010.93 1010.76 1010.59 1010.42 1010.27 1010.15 1010.06 1010.01 1010.04 1010.13 1010.31 1010.57 1010.91 1011.31 1011.77 1012.26 1012.76 1013.25
1006.98 1007.30 1007.68 1008.13 1008.66 1009.27 1009.95 1010.65 1011.35 1012.01 1012.58 1013.04 1013.37 1013.56 1013.63 1013.59 1013.47 1013.29 1013.07 1012.82 1012.56 1012.31 1012.04 1011.78 1011.51 1011.24 1010.97 1010.70 1010.43 1010.17 1009.94 1009.74 1009.60 1009.51 1009.51 1009.59 1009.78 1010.06 1010.43 1010.89 1011.40 1011.95 1012.51 1013.06
1007.76 1008.20 1008.67 1009.17 1009.71 1010.29 1010.89 1011.48 1012.06 1012.59 1013.05 1013.43 1013.69 1013.86 1013.92 1013.89 1013.79 1013.62 1013.40 1013.15 1012.87 1012.57 1012.25 1011.92 1011.58 1011.23 1010.88 1010.52 1010.18 1009.86 1009.57 1009.33 1009.15 1009.04 1009.02 1009.10 1009.29 1009.59 1009.98 1010.47 1011.01 1011.60 1012.20 1012.80
1008.63 1009.17 1009.71 1010.25 1010.79 1011.32 1011.82 1012.30 1012.74 1013.13 1013.46 1013.72 1013.90 1014.01 1014.04 1014.00 1013.90 1013.74 1013.53 1013.27 1012.96 1012.62 1012.25 1011.86 1011.45 1011.03 1010.61 1010.20 1009.81 1009.44 1009.12 1008.86 1008.67 1008.56 1008.55 1008.64 1008.84 1009.15 1009.55 1010.04 1010.60 1011.20 1011.82 1012.44
1009.57 1010.16 1010.74 1011.30 1011.81 1012.27 1012.69 1013.05 1013.35 1013.61 1013.80 1013.95 1014.04 1014.09 1014.08 1014.02 1013.90 1013.73 1013.51 1013.23 1012.90 1012.51 1012.09 1011.64 1011.16 1010.67 1010.19 1009.73 1009.31 1008.92 1008.60 1008.34 1008.16 1008.07 1008.08 1008.19 1008.41 1008.72 1009.13 1009.62 1010.17 1010.77 1011.39 1012.02
1010.51 1011.12 1011.71 1012.25 1012.72 1013.12 1013.44 1013.70 1013.89 1014.02 1014.11 1014.15 1014.17 1014.15 1014.10 1014.02 1013.89 1013.70 1013.46 1013.15 1012.77 1012.33 1011.85 1011.32 1010.78 1010.23 1009.69 1009.19 1008.74 1008.35 1008.04 1007.80 1007.66 1007.60 1007.65 1007.79 1008.02 1008.34 1008.75 1009.23 1009.77 1010.35 1010.96 1011.58
1011.42 1012.01 1012.57 1013.07 1013.49 1013.83 1014.08 1014.24 1014.34 1014.38 1014.39 1014.37 1014.33 1014.27 1014.19 1014.09 1013.94 1013.73 1013.46 1013.11 1012.68 1012.18 1011.62 1011.03 1010.41 1009.79 1009.21 1008.67 1008.21 1007.82 1007.52 1007.32 1007.21 1007.20 1007.28 1007.46 1007.71 1008.04 1008.45 1008.92 1009.44 1010.01 1010.60 1011.20
1012.24 1012.79 1013.31 1013.76 1014.13 1014.40 1014.59 1014.70 1014.73 1014.73 1014.68 1014.63 1014.56 1014.48 1014.39 1014.27 1014.10 1013.87 1013.57 1013.18 1012.70 1012.14 1011.51 1010.84 1010.16 1009.49 1008.86 1008.29 1007.81 1007.43 1007.15 1006.98 1006.91 1006.94 1007.06 1007.27 1007.54 1007.89 1008.30 1008.76 1009.27 1009.81 1010.39 1010.98
1012.96 1013.46 1013.92 1014.32 1014.63 1014.87 1015.01 1015.07 1015.08 1015.05 1014.99 1014.92 1014.85 1014.77 1014.67 1014.55 1014.38 1014.13 1013.80 1013.38 1012.86 1012.25 1011.57 1010.85 1010.12 1009.40 1008.73 1008.15 1007.66 1007.28 1007.02 1006.88 1006.84 1006.90 1007.05 1007.28 1007.57 1007.92 1008.33 1008.79 1009.29 1009.82 1010.38 1010.96
1013.57 1014.01 1014.42 1014.77 1015.04 1015.23 1015.35 1015.40 1015.39 1015.36 1015.30 1015.24 1015.18 1015.10 1015.02 1014.89 1014.72 1014.47 1014.13 1013.69 1013.15 1012.52 1011.82 1011.07 1010.31 1009.58 1008.90 1008.30 1007.81 1007.44 1007.19 1007.06 1007.04 1007.12 1007.28 1007.52 1007.82 1008.18 1008.58 1009.03 1009.52 1010.05 1010.60 1011.15
1014.06 1014.46 1014.81 1015.12 1015.35 1015.52 1015.62 1015.66 1015.66 1015.62 1015.58 1015.52 1015.47 1015.41 1015.33 1015.22 1015.06 1014.82 1014.49 1014.06 1013.52 1012.90 1012.21 1011.47 1010.73 1010.00 1009.34 1008.75 1008.27 1007.91 1007.67 1007.54 1007.52 1007.60 1007.76 1007.99 1008.29 1008.63 1009.03 1009.47 1009.95 1010.46 1010.99 1011.52
1014.45 1014.80 1015.12 1015.38 1015.59 1015.73 1015.81 1015.85 1015.84 1015.81 1015.77 1015.72 1015.67 1015.62 1015.55 1015.45 1015.30 1015.08 1014.78 1014.38 1013.89 1013.31 1012.67 1011.98 1011.28 1010.60 1009.97 1009.42 1008.96 1008.61 1008.37 1008.24 1008.21 1008.27 1008.41 1008.62 1008.89 1009.22 1009.59 1010.01 1010.47 1010.95 1011.45 1011.96
1014.75 1015.06 1015.34 1015.57 1015.74 1015.86 1015.93 1015.95 1015.93 1015.89 1015.84 1015.79 1015.74 1015.68 1015.61 1015.52 1015.38 1015.19 1014.93 1014.59 1014.16 1013.66 1013.09 1012.49 1011.87 1011.26 1010.68 1010.17 1009.75 1009.41 1009.17 1009.03 1008.98 1009.02 1009.12 1009.30 1009.54 1009.83 1010.16 1010.55 1010.96 1011.41 1011.87 1012.32
1014.95 1015.23 1015.47 1015.67 1015.81 1015.90 1015.94 1015.94 1015.91 1015.85 1015.78 1015.71 1015.64 1015.57 1015.50 1015.41 1015.29 1015.13 1014.92 1014.64 1014.29 1013.87 1013.41 1012.90 1012.37 1011.84 1011.34 1010.88 1010.49 1010.17 1009.94 1009.78 1009.71 1009.70 1009.77 1009.91 1010.10 1010.34 1010.63 1010.96 1011.32 1011.71 1012.11 1012.49
1015.07 1015.31 1015.52 1015.67 1015.79 1015.85 1015.86 1015.83 1015.77 1015.69 1015.59 1015.49 1015.40 1015.31 1015.22 1015.13 1015.03 1014.90 1014.74 1014.52 1014.25 1013.92 1013.55 1013.14 1012.70 1012.25 1011.82 1011.41 1011.06 1010.75 1010.52 1010.35 1010.25 1010.21 1010.24 1010.32 1010.46 1010.65 1010.88 1011.15 1011.45 1011.76 1012.08 1012.38
1015.12 1015.32 1015.48 1015.60 1015.68 1015.71 1015.70 1015.64 1015.55 1015.44 1015.31 1015.18 1015.06 1014.95 1014.85 1014.76 1014.67 1014.56 1014.43 1014.27 1014.06 1013.81 1013.51 1013.18 1012.81 1012.43 1012.05 1011.69 1011.36 1011.07 1010.83 1010.65 1010.52 1010.46 1010.45 1010.49 1010.58 1010.71 1010.88 1011.07 1011.29 1011.52 1011.74 1011.95
1015.11 1015.26 1015.38 1015.47 1015.52 1015.52 1015.48 1015.39 1015.28 1015.15 1015.00 1014.85 1014.70 1014.57 1014.46 1014.36 1014.27 1014.18 1014.07 1013.94 1013.78 1013.57 1013.33 1013.04 1012.72 1012.38 1012.04 1011.70 1011.38 1011.10 1010.85 1010.66 1010.52 1010.43 1010.39 1010.39 1010.43 1010.51 1010.62 1010.74 1010.87 1011.01 1011.14 1011.24
1015.05 1015.16 1015.24 1015.30 1015.32 1015.30 1015.24 1015.15 1015.02 1014.87 1014.71 1014.54 1014.39 1014.25 1014.13 1014.03 1013.94 1013.85 1013.75 1013.63 1013.48 1013.29 1013.06 1012.79 1012.49 1012.16 1011.83 1011.49 1011.17 1010.89 1010.64 1010.43 1010.28 1010.17 1010.11 1010.09 1010.09 1010.12 1010.17 1010.23 1010.28 1010.33 1010.36 1010.37
1014.97 1015.05 1015.10 1015.13 1015.14 1015.10 1015.03 1014.93 1014.80 1014.65 1014.49 1014.33 1014.17 1014.03 1013.91 1013.81 1013.71 1013.62 1013.51 1013.39 1013.23 1013.04 1012.80 1012.52 1012.21 1011.87 1011.52 1011.18 1010.85 1010.56 1010.30 1010.09 1009.93 1009.81 1009.73 1009.69 1009.67 1009.66 1009.66 1009.65 1009.64 1009.61 1009.56 1009.49
1014.90 1014.95 1014.98 1014.99 1014.98 1014.94 1014.87 1014.78 1014.65 1014.51 1014.36 1014.21 1014.07 1013.95 1013.83 1013.73 1013.63 1013.53 1013.42 1013.27 1013.10 1012.88 1012.62 1012.32 1011.98 1011.62 1011.25 1010.89 1010.54 1010.24 1009.97 1009.75 1009.59 1009.47 1009.38 1009.32 1009.28 1009.24 1009.20 1009.15 1009.07 1008.98 1008.87 1008.74
1014.85 1014.87 1014.89 1014.90 1014.88 1014.84 1014.77 1014.68 1014.58 1014.45 1014.33 1014.20 1014.08 1013.97 1013.87 1013.78 1013.68 1013.58 1013.45 1013.30 1013.10 1012.86 1012.57 1012.24 1011.87 1011.49 1011.10 1010.72 1010.36 1010.04 1009.77 1009.55 1009.38 1009.25 1009.16 1009.09 1009.03 1008.97 1008.90 1008.80 1008.69 1008.55 1008.40 1008.24
1014.82 1014.84 1014.85 1014.85 1014.83 1014.79 1014.73 1014.66 1014.56 1014.47 1014.36 1014.26 1014.17 1014.08 1014.00 1013.92 1013.84 1013.74 1013.61 1013.44 1013.23 1012.97 1012.67 1012.32 1011.94 1011.54 1011.13 1010.74 1010.37 1010.05 1009.78 1009.55 1009.37 1009.24 1009.14 1009.06 1008.98 1008.90 1008.80 1008.68 1008.54 1008.38 1008.20 1008.02
1014.81 1014.83 1014.84 1014.84 1014.82 1014.79 1014.74 1014.68 1014.60 1014.53 1014.45 1014.37 1014.31 1014.25 1014.19 1014.13 1014.06 1013.97 1013.85 1013.68 1013.47 1013.21 1012.90 1012.55 1012.16 1011.76 1011.35 1010.96 1010.59 1010.27 1009.99 1009.76 1009.58 1009.43 1009.31 1009.22 1009.12 1009.02 1008.90 1008.76 1008.60 1008.43 1008.25 1008.07
1014.82 1014.84 1014.86 1014.86 1014.85 1014.83 1014.79 1014.75 1014.69 1014.63 1014.58 1014.53 1014.48 1014.45 1014.41 1014.37 1014.32 1014.24 1014.13 1013.98 1013.78 1013.53 1013.23 1012.88 1012.51 1012.11 1011.72 1011.33 1010.97 1010.65 1010.37 1010.13 1009.94 1009.77 1009.64 1009.52 1009.40 1009.28 1009.15 1009.00 1008.84 1008.66 1008.49 1008.32
1014.84 1014.88 1014.91 1014.93 1014.93 1014.92 1014.90 1014.87 1014.83 1014.79 1014.76 1014.73 1014.71 1014.69 1014.67 1014.64 1014.60 1014.54 1014.44 1014.31 1014.12 1013.88 1013.60 1013.27 1012.91 1012.54 1012.16 1011.78 1011.43 1011.11 1010.82 1010.58 1010.37 1010.19 1010.03 1009.89 1009.75 1009.61 1009.46 1009.31 1009.14 1008.98 1008.82 1008.67
1014.90 1014.96 1015.01 1015.05 1015.07 1015.08 1015.08 1015.07 1015.05 1015.03 1015.01 1014.99 1014.99 1014.98 1014.97 1014.95 1014.92 1014.86 1014.77 1014.64 1014.46 1014.23 1013.96 1013.65 1013.31 1012.95 1012.59 1012.22 1011.88 1011.56 1011.27 1011.01 1010.78 1010.58 1010.40 1010.23 1010.08 1009.92 1009.76 1009.60 1009.44 1009.29 1009.14 1009.01
Thickness
5797 5804 5805 5801 5800 5802 5801 5807 5805 5808 5809 5809 5811 5812 5812 5813 5811 5808 5805 5804 5802 5800 5798 5795 5793 5791 5787 5784 5781 5778 5773 5768 5764 5761 5757 5752 5747 5743 5740 5738 5737 5734 5731 5729
5779 5791 5794 5789 5794 5797 5798 5802 5804 5805 5802 5813 5813 5811 5806 5805 5803 5800 5798 5798 5797 5795 5794 5791 5789 5787 5784 5780 5777 5773 5768 5764 5761 5757 5753 5748 5743 5739 5736 5734 5731 5729 5727 5725
5768 5779 5777 5771 5786 5791 5792 5798 5800 5795 5800 5804 5800 5799 5799 5798 5798 5795 5794 5793 5792 5791 5789 5787 5785 5784 5780 5777 5774 5769 5764 5760 5757 5753 5749 5745 5742 5737 5733 5729 5727 5724 5722 5720
5764 5758 5744 5775 5795 5793 5788 5790 5796 5795 5797 5797 5795 5796 5797 5796 5793 5790 5790 5789 5788 5787 5786 5785 5783 5781 5777 5774 5769 5764 5760 5756 5753 5749 5745 5741 5737 5732 5729 5726 5722 5719 5717 5714
5754 5748 5754 5767 5780 5783 5777 5775 5787 5787 5788 5791 5793 5790 5788 5790 5789 5787 5787 5786 5784 5784 5783 5780 5778 5775 5771 5768 5765 5760 5756 5752 5749 5745 5741 5737 5732 5728 5725 5722 5718 5715 5712 5709
5745 5740 5741 5761 5775 5781 5774 5761 5780 5781 5779 5782 5783 5778 5778 5782 5782 5781 5781 5780 5778 5779 5777 5773 5771 5769 5764 5761 5759 5755 5752 5749 5745 5741 5736 5732 5728 5724 5721 5717 5713 5710 5707 5705
5737 5736 5748 5757 5766 5766 5747 5754 5771 5773 5773 5774 5774 5774 5774 5776 5775 5774 5773 5772 5772 5770 5768 5766 5764 5762 5757 5754 5751 5750 5747 5743 5738 5735 5731 5727 5723 5719 5716 5713 5709 5706 5702 5700
5732 5729 5733 5749 5752 5748 5748 5757 5761 5763 5764 5764 5764 5765 5765 5765 5764 5764 5763 5763 5762 5760 5758 5758 5756 5753 5749 5746 5745 5742 5739 5735 5732 5729 5728 5725 5719 5715 5711 5707 5703 5701 5698 5695
5728 5727 5732 5740 5741 5743 5748 5747 5750 5753 5754 5754 5753 5754 5755 5755 5755 5755 5755 5754 5753 5751 5749 5749 5748 5746 5742 5740 5738 5734 5730 5727 5725 5723 5720 5718 5714 5709 5706 5703 5701 5698 5695 5693
5714 5719 5725 5729 5733 5736 5739 5739 5742 5744 5745 5746 5745 5746 5746 5746 5746 5745 5745 5745 5744 5743 5741 5739 5739 5738 5736 5734 5731 5727 5722 5720 5718 5715 5713 5710 5707 5704 5702 5700 5697 5695 5692 5690
5703 5708 5714 5718 5721 5724 5727 5730 5732 5734 5736 5736 5736 5736 5737 5736 5736 5736 5735 5736 5735 5733 5732 5731 5730 5729 5729 5726 5723 5719 5716 5713 5712 5710 5708 5703 5700 5697 5696 5694 5692 5687 5686 5684
5698 5702 5703 5704 5711 5715 5715 5717 5721 5722 5723 5726 5727 5727 5728 5727 5727 5727 5728 5727 5726 5725 5724 5723 5723 5721 5722 5719 5716 5712 5709 5707 5706 5704 5701 5698 5694 5690 5685 5684 5680 5676 5674 5672
5693 5697 5699 5700 5703 5706 5706 5708 5711 5713 5714 5715 5717 5718 5719 5718 5719 5719 5719 5718 5718 5717 5716 5716 5715 5714 5713 5712 5709 5706 5704 5702 5701 5698 5695 5691 5688 5685 5681 5675 5671 5668 5664 5661
5685 5686 5686 5689 5691 5695 5698 5700 5702 5704 5706 5707 5708 5709 5709 5709 5710 5709 5709 5710 5710 5709 5708 5707 5705 5705 5705 5704 5702 5699 5697 5695 5693 5690 5688 5685 5682 5679 5678 5674 5670 5666 5658 5652
5676 5678 5680 5682 5684 5686 5689 5690 5691 5693 5695 5696 5698 5698 5699 5699 5699 5700 5702 5702 5702 5700 5699 5698 5696 5696 5696 5696 5693 5691 5689 5688 5686 5684 5682 5679 5677 5674 5672 5669 5666 5662 5657 5650
5666 5669 5671 5672 5673 5676 5679 5680 5681 5683 5685 5686 5688 5689 5691 5691 5692 5693 5693 5693 5691 5691 5690 5689 5688 5688 5687 5686 5685 5683 5681 5678 5676 5676 5675 5672 5670 5668 5665 5662 5659 5655 5652 5648
5655 5657 5660 5662 5664 5667 5670 5672 5673 5675 5677 5678 5680 5682 5683 5683 5683 5683 5684 5684 5683 5682 5682 5681 5681 5681 5679 5679 5678 5677 5675 5672 5667 5667 5667 5665 5663 5660 5658 5654 5650 5647 5644 5641
5650 5652 5654 5656 5658 5659 5661 5663 5665 5667 5669 5671 5673 5673 5674 5674 5674 5675 5675 5675 5674 5673 5674 5674 5674 5673 5672 5672 5671 5670 5668 5666 5664 5662 5659 5657 5654 5652 5649 5646 5643 5640 5637 5633
5644 5645 5647 5648 5651 5652 5654 5656 5658 5660 5661 5662 5663 5664 5666 5667 5668 5667 5667 5666 5665 5664 5666 5667 5663 5664 5664 5663 5662 5661 5661 5659 5656 5654 5651 5646 5645 5645 5642 5639 5636 5633 5630 5626
5638 5640 5642 5643 5645 5646 5647 5650 5651 5653 5654 5656 5657 5658 5658 5660 5661 5660 5659 5659 5659 5659 5659 5657 5656 5656 5655 5654 5652 5654 5653 5651 5649 5647 5644 5641 5639 5637 5634 5632 5629 5626 5623 5619
5634 5636 5638 5639 5640 5641 5643 5645 5646 5647 5648 5650 5651 5651 5652 5652 5653 5652 5651 5652 5651 5650 5650 5647 5648 5648 5647 5645 5642 5645 5644 5643 5641 5639 5636 5634 5631 5629 5626 5623 5621 5618 5615 5612
5629 5631 5632 5633 5634 5635 5637 5639 5640 5641 5642 5643 5644 5645 5645 5645 5645 5645 5645 5645 5644 5640 5642 5643 5641 5638 5637 5634 5637 5638 5636 5634 5633 5630 5627 5625 5623 5620 5617 5614 5611 5609 5605 5602
5622 5624 5626 5627 5628 5630 5632 5634 5635 5636 5636 5637 5638 5638 5639 5639 5640 5639 5637 5637 5637 5633 5635 5634 5629 5626 5625 5628 5630 5629 5628 5626 5623 5621 5619 5617 5615 5612 5609 5606 5603 5600 5596 5594
5618 5620 5621 5622 5624 5625 5625 5628 5629 5631 5632 5633 5634 5634 5634 5634 5633 5634 5633 5628 5626 5625 5627 5622 5619 5618 5617 5623 5622 5621 5619 5617 5615 5613 5612 5610 5608 5606 5603 5599 5596 5593 5590 5588
5613 5615 5617 5618 5619 5620 5621 5622 5623 5625 5626 5627 5628 5628 5629 5629 5627 5626 5625 5622 5618 5618 5619 5616 5613 5611 5614 5616 5615 5613 5611 5609 5608 5606 5604 5602 5600 5598 5595 5592 5589 5586 5584 5582
5610 5612 5613 5613 5615 5615 5618 5618 5619 5620 5621 5621 5621 5622 5622 5621 5620 5618 5616 5616 5614 5611 5612 5611 5610 5608 5610 5609 5608 5606 5605 5602 5601 5599 5596 5594 5592 5590 5587 5584 5581 5580 5578 5575
5607 5608 5608 5609 5611 5612 5614 5615 5615 5615 5616 5616 5615 5615 5615 5614 5612 5611 5610 5609 5608 5607 5606 5605 5605 5605 5604 5603 5601 5599 5597 5595 5594 5592 5590 5587 5584 5582 5580 5577 5575 5573 5570 5568